GEFSSE_prec_meanprecacc_174.txt.gz
Total_Precipitation_Accumulation
0.14 0.12 0.18 0.15 0.13 0.18 0.21 0.24 0.22 0.19 0.19 0.21 0.19 0.18 0.18 0.18 0.21 0.27 0.28 0.28 0.30 0.36 0.39 0.41 0.40 0.43 0.45 0.46 0.46 0.45 0.42 0.42 0.48 0.54 0.60 0.61 0.64 0.90 1.23 1.34 1.33 0.90 0.87
0.05 0.08 0.15 0.15 0.13 0.14 0.19 0.22 0.21 0.19 0.18 0.19 0.18 0.17 0.17 0.18 0.20 0.22 0.25 0.28 0.31 0.33 0.32 0.35 0.37 0.36 0.32 0.31 0.30 0.30 0.36 0.44 0.60 0.70 0.66 0.55 0.66 0.87 1.18 1.22 1.30 0.80 0.74
0.03 0.05 0.10 0.13 0.12 0.13 0.17 0.18 0.20 0.20 0.18 0.19 0.17 0.19 0.22 0.22 0.19 0.21 0.24 0.26 0.27 0.26 0.26 0.29 0.32 0.28 0.22 0.20 0.22 0.28 0.38 0.55 0.75 0.89 1.02 0.59 0.46 0.85 1.15 1.13 0.90 0.63 0.63
0.04 0.04 0.05 0.09 0.12 0.12 0.13 0.16 0.20 0.21 0.20 0.20 0.19 0.21 0.24 0.24 0.21 0.21 0.22 0.22 0.21 0.21 0.22 0.25 0.25 0.20 0.18 0.18 0.21 0.28 0.36 0.58 0.82 1.14 1.21 0.65 0.37 0.62 0.90 0.81 0.67 0.58 0.61
0.08 0.07 0.08 0.09 0.10 0.12 0.13 0.14 0.20 0.22 0.21 0.22 0.24 0.25 0.24 0.27 0.24 0.23 0.22 0.21 0.20 0.20 0.20 0.20 0.19 0.16 0.15 0.18 0.22 0.29 0.39 0.54 0.81 1.04 0.89 0.78 0.70 0.62 0.67 0.68 0.68 0.68 0.66
0.13 0.09 0.09 0.13 0.14 0.14 0.13 0.13 0.17 0.22 0.22 0.22 0.24 0.28 0.28 0.32 0.33 0.27 0.22 0.21 0.21 0.18 0.17 0.16 0.15 0.16 0.17 0.19 0.25 0.31 0.44 0.60 0.72 0.61 0.57 0.58 0.65 0.71 0.63 0.79 0.88 0.88 0.77
0.19 0.14 0.13 0.16 0.17 0.17 0.16 0.17 0.18 0.19 0.19 0.18 0.19 0.20 0.24 0.28 0.34 0.30 0.25 0.24 0.22 0.19 0.17 0.16 0.16 0.18 0.19 0.20 0.24 0.33 0.46 0.64 0.64 0.47 0.57 0.64 0.57 0.54 0.64 0.91 1.11 1.08 0.91
0.40 0.27 0.23 0.24 0.22 0.20 0.18 0.20 0.20 0.19 0.16 0.16 0.16 0.17 0.22 0.23 0.25 0.29 0.27 0.25 0.23 0.20 0.18 0.16 0.17 0.19 0.21 0.23 0.26 0.32 0.43 0.57 0.52 0.49 0.48 0.47 0.42 0.50 0.69 0.92 1.10 1.18 1.06
0.63 0.47 0.39 0.31 0.25 0.25 0.25 0.24 0.22 0.20 0.19 0.17 0.18 0.20 0.27 0.29 0.30 0.32 0.29 0.27 0.27 0.26 0.22 0.17 0.17 0.20 0.22 0.23 0.25 0.30 0.38 0.54 0.58 0.63 0.48 0.47 0.59 0.67 0.85 1.03 1.06 1.11 1.07
0.87 0.68 0.54 0.51 0.47 0.39 0.32 0.30 0.31 0.28 0.27 0.25 0.24 0.29 0.33 0.34 0.33 0.36 0.32 0.32 0.34 0.35 0.32 0.29 0.24 0.23 0.24 0.24 0.27 0.33 0.40 0.43 0.47 0.54 0.53 0.46 0.65 0.79 0.96 1.03 1.08 1.07 1.07
1.37 0.97 0.78 0.70 0.67 0.63 0.53 0.46 0.48 0.46 0.43 0.38 0.41 0.44 0.49 0.57 0.56 0.65 0.56 0.58 0.55 0.57 0.56 0.54 0.47 0.41 0.37 0.33 0.40 0.50 0.47 0.53 0.73 0.78 0.63 0.64 0.75 0.95 1.12 1.12 1.14 1.14 1.14
1.56 1.13 0.99 0.83 0.73 0.73 0.83 0.95 0.88 0.77 0.74 0.72 0.80 0.85 1.02 1.10 1.06 0.85 0.87 1.02 1.10 1.23 1.16 1.09 1.02 0.80 0.68 0.61 0.98 1.22 0.63 0.54 0.70 0.84 0.74 0.70 0.91 1.23 1.40 1.28 1.18 1.14 1.07
1.50 1.24 1.12 1.10 1.05 0.95 1.07 1.21 1.20 1.13 1.14 1.07 1.08 1.21 1.33 1.23 1.15 1.08 1.13 1.31 1.42 1.56 1.54 1.69 1.72 1.43 1.39 1.39 1.54 1.47 0.89 0.85 0.82 0.76 0.84 0.95 1.07 1.37 1.65 1.48 1.28 1.18 1.08
1.96 1.67 1.50 1.52 1.37 1.27 1.25 1.36 1.37 1.35 1.26 1.21 1.29 1.32 1.50 1.58 1.52 1.50 1.58 1.59 1.67 1.85 2.18 2.03 2.17 2.07 1.93 1.80 1.74 1.57 1.29 1.28 1.19 1.14 1.40 1.25 1.17 1.45 1.78 1.66 1.45 1.34 1.24
2.49 2.40 2.10 1.85 1.65 1.59 1.69 1.65 1.58 1.57 1.52 1.56 1.67 1.67 1.73 1.90 1.90 1.94 1.88 1.88 1.75 1.94 2.27 2.37 2.25 2.46 2.47 2.25 2.01 1.81 1.72 1.57 1.44 1.46 1.55 1.47 1.37 1.46 1.73 1.83 1.69 1.57 1.46
2.69 2.77 2.55 2.31 2.13 2.09 2.20 2.23 2.08 1.90 1.98 2.04 2.01 1.91 1.94 2.15 2.35 2.39 2.23 2.16 2.01 2.03 2.22 2.35 2.38 2.85 2.71 2.54 2.09 1.87 1.81 1.79 1.66 1.62 1.66 1.75 1.47 1.34 1.47 1.76 1.92 1.88 1.79
3.05 2.96 2.90 2.82 2.70 2.71 2.66 2.60 2.40 2.32 2.16 2.14 2.20 2.26 2.22 2.23 2.46 2.52 2.49 2.34 2.25 2.22 2.36 2.39 2.58 2.82 2.54 2.41 2.12 2.00 1.90 1.77 1.62 1.63 1.82 1.99 1.77 1.50 1.35 1.47 1.76 1.92 1.96
3.40 3.35 3.30 3.16 3.15 3.12 3.07 2.93 2.77 2.63 2.34 2.13 2.12 2.28 2.31 2.33 2.48 2.55 2.37 2.25 2.45 2.54 2.61 2.73 2.80 2.82 2.68 2.59 2.40 2.09 1.92 1.83 1.45 1.44 1.52 1.61 1.74 1.52 1.58 1.68 1.82 1.88 2.06
3.89 3.99 3.93 3.86 3.63 3.40 3.33 3.29 3.29 3.18 2.83 2.48 2.37 2.36 2.37 2.26 2.29 2.44 2.30 2.36 2.53 2.62 2.64 2.42 2.78 2.76 2.76 2.69 2.26 2.00 1.72 1.54 1.41 1.23 1.22 1.18 1.31 1.36 1.44 1.54 1.68 1.68 1.98
4.10 4.44 4.29 4.14 4.11 4.04 3.94 3.69 3.66 3.39 3.05 2.89 2.76 2.70 2.52 2.37 2.36 2.50 2.36 2.44 2.54 2.63 2.62 2.62 2.79 2.78 2.63 2.62 2.09 1.82 1.56 1.25 1.26 1.20 1.02 1.06 1.11 1.04 1.12 1.32 1.60 1.37 1.71
4.24 4.53 4.61 4.73 4.65 4.42 4.03 3.61 3.41 3.28 3.19 3.03 2.79 2.55 2.45 2.39 2.45 2.63 2.51 2.65 2.61 2.47 2.45 2.60 2.76 2.59 2.36 2.51 2.37 1.80 1.36 1.09 1.09 1.04 1.05 1.11 1.03 1.01 1.17 1.45 1.57 1.49 1.39
3.85 4.25 4.37 4.13 4.00 3.91 3.66 3.49 3.45 3.60 3.31 2.99 2.78 2.52 2.32 2.30 2.35 2.29 2.39 2.30 2.33 2.42 2.42 2.47 2.63 2.45 2.08 2.24 2.28 2.08 1.52 1.26 1.02 0.84 1.00 1.02 0.98 1.10 1.15 1.30 1.56 1.73 1.60
2.88 3.12 3.28 3.41 3.28 3.15 3.07 3.07 3.14 3.31 3.04 2.73 2.55 2.40 2.18 2.04 2.00 2.02 2.01 2.11 2.35 2.39 2.36 2.41 2.41 2.27 1.97 1.93 2.06 2.19 1.73 1.35 1.08 0.78 0.77 0.91 1.08 1.27 1.21 1.36 1.48 1.64 1.72
2.44 2.59 2.66 2.70 2.79 2.74 2.73 2.66 2.55 2.46 2.33 2.19 2.18 2.13 2.09 1.99 1.88 1.82 1.82 1.88 1.93 1.94 2.01 1.86 1.97 2.11 2.11 1.91 1.94 1.93 1.77 1.61 1.47 1.08 0.85 0.86 1.03 1.14 1.21 1.20 1.21 1.34 1.62
1.83 2.03 2.18 2.28 2.36 2.42 2.41 2.31 2.29 2.13 2.09 2.08 2.02 1.97 1.89 1.81 1.78 1.72 1.64 1.61 1.52 1.52 1.65 1.66 1.78 1.82 1.82 1.80 1.82 1.86 1.81 1.76 1.68 1.55 1.25 1.13 1.07 0.93 0.99 1.08 1.12 1.19 1.47
1.60 1.75 1.89 2.00 2.03 2.09 2.13 2.10 2.05 1.99 1.98 1.92 1.84 1.78 1.73 1.71 1.60 1.51 1.46 1.48 1.41 1.40 1.48 1.54 1.62 1.59 1.63 1.70 1.71 1.75 1.80 1.74 1.75 1.77 1.48 1.37 1.27 1.04 1.02 0.98 1.00 1.05 1.27

GEFSSE_prec_meanprecacc_180.txt.gz
Total_Precipitation_Accumulation
0.17 0.16 0.24 0.19 0.16 0.20 0.23 0.26 0.25 0.22 0.22 0.23 0.21 0.22 0.23 0.24 0.27 0.32 0.33 0.34 0.36 0.42 0.44 0.45 0.44 0.46 0.48 0.50 0.51 0.51 0.50 0.50 0.55 0.61 0.66 0.65 0.66 0.94 1.28 1.39 1.37 0.92 0.90
0.06 0.11 0.19 0.18 0.16 0.16 0.20 0.23 0.22 0.21 0.21 0.22 0.20 0.20 0.22 0.23 0.25 0.27 0.30 0.33 0.36 0.37 0.36 0.39 0.41 0.39 0.35 0.33 0.35 0.36 0.43 0.52 0.66 0.75 0.70 0.58 0.70 0.91 1.21 1.27 1.33 0.82 0.76
0.03 0.06 0.12 0.16 0.15 0.15 0.18 0.20 0.21 0.22 0.20 0.20 0.18 0.22 0.26 0.26 0.23 0.25 0.29 0.29 0.29 0.28 0.29 0.33 0.36 0.31 0.24 0.23 0.27 0.33 0.43 0.61 0.79 0.93 1.04 0.60 0.49 0.90 1.19 1.17 0.94 0.65 0.65
0.04 0.04 0.06 0.11 0.13 0.13 0.15 0.17 0.21 0.22 0.21 0.21 0.21 0.23 0.26 0.27 0.24 0.24 0.25 0.24 0.23 0.23 0.25 0.28 0.29 0.23 0.20 0.20 0.24 0.32 0.42 0.65 0.89 1.18 1.22 0.66 0.38 0.65 0.94 0.84 0.71 0.61 0.63
0.08 0.07 0.09 0.10 0.10 0.13 0.13 0.15 0.21 0.24 0.23 0.24 0.26 0.26 0.27 0.31 0.28 0.25 0.25 0.25 0.23 0.22 0.23 0.24 0.24 0.19 0.17 0.20 0.25 0.33 0.44 0.62 0.89 1.07 0.90 0.79 0.70 0.64 0.70 0.71 0.73 0.72 0.68
0.13 0.09 0.10 0.13 0.15 0.15 0.13 0.14 0.18 0.23 0.23 0.24 0.26 0.30 0.30 0.34 0.36 0.30 0.25 0.25 0.24 0.22 0.21 0.18 0.17 0.19 0.19 0.22 0.28 0.36 0.50 0.68 0.78 0.63 0.57 0.58 0.66 0.73 0.65 0.82 0.92 0.92 0.81
0.20 0.14 0.13 0.17 0.17 0.17 0.16 0.18 0.19 0.20 0.20 0.20 0.21 0.22 0.26 0.30 0.36 0.32 0.28 0.26 0.24 0.22 0.20 0.18 0.18 0.20 0.21 0.22 0.28 0.38 0.54 0.75 0.68 0.48 0.57 0.64 0.58 0.57 0.67 0.94 1.14 1.13 0.97
0.41 0.27 0.24 0.24 0.22 0.20 0.19 0.21 0.21 0.20 0.17 0.17 0.17 0.18 0.24 0.26 0.28 0.31 0.30 0.27 0.24 0.21 0.20 0.19 0.19 0.21 0.24 0.26 0.29 0.37 0.51 0.66 0.55 0.51 0.49 0.47 0.44 0.52 0.71 0.94 1.13 1.22 1.09
0.64 0.47 0.39 0.31 0.26 0.26 0.26 0.25 0.23 0.21 0.21 0.19 0.19 0.22 0.30 0.32 0.32 0.34 0.32 0.29 0.28 0.27 0.23 0.19 0.18 0.22 0.24 0.25 0.27 0.35 0.46 0.64 0.62 0.65 0.48 0.48 0.61 0.69 0.87 1.05 1.08 1.13 1.08
0.90 0.69 0.54 0.51 0.47 0.39 0.32 0.31 0.31 0.28 0.28 0.26 0.25 0.30 0.35 0.36 0.36 0.38 0.35 0.34 0.36 0.37 0.33 0.30 0.25 0.24 0.26 0.27 0.30 0.37 0.47 0.49 0.50 0.56 0.53 0.47 0.68 0.83 0.99 1.04 1.09 1.08 1.08
1.38 0.98 0.78 0.70 0.67 0.63 0.53 0.46 0.48 0.47 0.44 0.40 0.44 0.48 0.54 0.60 0.59 0.67 0.58 0.62 0.57 0.60 0.58 0.56 0.48 0.43 0.39 0.36 0.43 0.54 0.52 0.57 0.77 0.80 0.63 0.65 0.77 0.97 1.13 1.13 1.15 1.14 1.14
1.57 1.14 1.00 0.83 0.73 0.73 0.83 0.96 0.89 0.78 0.76 0.74 0.84 0.91 1.08 1.17 1.12 0.89 0.92 1.07 1.14 1.25 1.18 1.11 1.04 0.81 0.69 0.64 1.03 1.27 0.68 0.60 0.75 0.86 0.75 0.71 0.92 1.24 1.40 1.29 1.19 1.15 1.07
1.50 1.24 1.14 1.12 1.05 0.95 1.07 1.21 1.21 1.13 1.15 1.09 1.10 1.23 1.35 1.26 1.18 1.10 1.15 1.34 1.44 1.58 1.54 1.70 1.74 1.44 1.40 1.42 1.59 1.53 0.96 0.92 0.87 0.78 0.85 0.96 1.08 1.38 1.66 1.49 1.28 1.18 1.08
1.96 1.67 1.50 1.53 1.37 1.27 1.25 1.36 1.37 1.35 1.27 1.21 1.30 1.33 1.50 1.60 1.53 1.51 1.60 1.61 1.68 1.85 2.19 2.04 2.19 2.10 1.97 1.84 1.79 1.64 1.36 1.35 1.28 1.18 1.42 1.27 1.18 1.46 1.79 1.67 1.45 1.34 1.25
2.51 2.41 2.12 1.86 1.66 1.60 1.70 1.66 1.58 1.57 1.53 1.57 1.68 1.68 1.73 1.91 1.91 1.95 1.89 1.89 1.75 1.95 2.28 2.38 2.27 2.49 2.53 2.31 2.07 1.86 1.79 1.64 1.50 1.50 1.57 1.48 1.38 1.46 1.73 1.84 1.69 1.58 1.47
2.70 2.78 2.57 2.33 2.15 2.10 2.21 2.25 2.09 1.91 1.99 2.05 2.02 1.91 1.95 2.16 2.36 2.39 2.24 2.17 2.03 2.04 2.24 2.37 2.40 2.88 2.76 2.60 2.14 1.92 1.86 1.84 1.70 1.66 1.68 1.76 1.48 1.35 1.47 1.77 1.92 1.88 1.79
3.08 2.99 2.92 2.84 2.71 2.73 2.67 2.61 2.42 2.33 2.18 2.15 2.20 2.27 2.23 2.24 2.47 2.52 2.50 2.35 2.27 2.24 2.38 2.41 2.60 2.84 2.57 2.45 2.17 2.05 1.94 1.83 1.67 1.66 1.83 2.00 1.77 1.51 1.36 1.47 1.77 1.93 1.97
3.44 3.40 3.34 3.18 3.16 3.13 3.07 2.94 2.78 2.65 2.36 2.14 2.13 2.28 2.32 2.35 2.48 2.56 2.38 2.26 2.46 2.55 2.62 2.74 2.81 2.85 2.71 2.63 2.44 2.14 1.96 1.89 1.50 1.47 1.54 1.61 1.75 1.53 1.58 1.69 1.83 1.90 2.08
3.92 4.04 3.99 3.90 3.65 3.41 3.34 3.31 3.32 3.23 2.88 2.50 2.38 2.36 2.38 2.27 2.30 2.45 2.31 2.37 2.54 2.63 2.66 2.43 2.79 2.78 2.79 2.72 2.29 2.03 1.77 1.62 1.49 1.27 1.25 1.20 1.33 1.37 1.44 1.55 1.69 1.69 1.99
4.15 4.49 4.36 4.22 4.15 4.07 3.96 3.72 3.69 3.46 3.14 2.93 2.77 2.71 2.53 2.38 2.37 2.52 2.37 2.45 2.56 2.65 2.64 2.66 2.83 2.80 2.65 2.65 2.13 1.86 1.61 1.30 1.32 1.25 1.06 1.08 1.14 1.05 1.13 1.33 1.61 1.38 1.72
4.32 4.62 4.67 4.81 4.70 4.45 4.06 3.63 3.43 3.33 3.26 3.06 2.81 2.57 2.47 2.41 2.46 2.65 2.53 2.66 2.63 2.49 2.46 2.62 2.80 2.63 2.41 2.54 2.43 1.86 1.40 1.15 1.14 1.09 1.08 1.15 1.07 1.05 1.19 1.47 1.59 1.50 1.40
3.95 4.32 4.42 4.20 4.06 3.94 3.69 3.53 3.48 3.63 3.33 3.01 2.80 2.55 2.37 2.33 2.38 2.33 2.42 2.32 2.34 2.44 2.44 2.49 2.67 2.49 2.12 2.26 2.32 2.14 1.58 1.33 1.08 0.89 1.05 1.07 1.05 1.16 1.20 1.33 1.60 1.77 1.63
2.97 3.19 3.35 3.48 3.34 3.20 3.14 3.13 3.20 3.36 3.08 2.76 2.57 2.43 2.21 2.08 2.03 2.06 2.06 2.14 2.38 2.41 2.38 2.43 2.45 2.30 2.00 1.97 2.09 2.22 1.76 1.38 1.10 0.81 0.81 0.96 1.14 1.30 1.27 1.41 1.52 1.68 1.76
2.59 2.72 2.77 2.79 2.87 2.82 2.80 2.71 2.58 2.49 2.35 2.21 2.20 2.15 2.12 2.01 1.90 1.85 1.85 1.91 1.97 1.98 2.05 1.89 2.00 2.13 2.14 1.94 1.98 1.96 1.81 1.64 1.48 1.11 0.89 0.90 1.07 1.18 1.26 1.24 1.25 1.38 1.66
1.96 2.17 2.30 2.38 2.46 2.50 2.48 2.37 2.34 2.17 2.12 2.11 2.06 2.00 1.91 1.84 1.81 1.75 1.67 1.65 1.57 1.58 1.70 1.70 1.81 1.85 1.85 1.82 1.84 1.88 1.84 1.79 1.70 1.56 1.27 1.16 1.10 0.96 1.02 1.12 1.17 1.24 1.50
1.69 1.84 1.98 2.08 2.10 2.17 2.20 2.17 2.12 2.05 2.02 1.97 1.88 1.82 1.78 1.76 1.66 1.56 1.52 1.53 1.46 1.47 1.55 1.58 1.66 1.62 1.66 1.72 1.73 1.78 1.83 1.76 1.77 1.78 1.49 1.38 1.29 1.06 1.04 1.01 1.04 1.10 1.31

GEFSSE_prec_meanprecacc_186.txt.gz
Total_Precipitation_Accumulation
0.25 0.29 0.40 0.31 0.25 0.27 0.30 0.36 0.35 0.28 0.28 0.30 0.29 0.29 0.30 0.30 0.32 0.37 0.38 0.38 0.40 0.47 0.51 0.52 0.52 0.52 0.54 0.56 0.58 0.58 0.57 0.56 0.60 0.67 0.74 0.72 0.74 1.01 1.35 1.46 1.41 0.95 0.94
0.11 0.22 0.33 0.27 0.21 0.21 0.25 0.30 0.27 0.24 0.24 0.25 0.24 0.26 0.27 0.29 0.31 0.31 0.35 0.38 0.41 0.42 0.42 0.45 0.46 0.42 0.39 0.38 0.40 0.40 0.48 0.57 0.72 0.83 0.78 0.64 0.76 0.97 1.26 1.30 1.36 0.85 0.81
0.06 0.13 0.20 0.22 0.20 0.19 0.21 0.24 0.25 0.25 0.22 0.23 0.21 0.25 0.30 0.31 0.28 0.30 0.35 0.35 0.35 0.33 0.34 0.37 0.39 0.34 0.27 0.27 0.30 0.36 0.47 0.67 0.84 0.99 1.09 0.62 0.53 0.96 1.23 1.21 1.00 0.70 0.70
0.05 0.08 0.10 0.14 0.16 0.16 0.17 0.19 0.23 0.24 0.23 0.24 0.24 0.26 0.30 0.31 0.30 0.30 0.31 0.30 0.28 0.27 0.28 0.31 0.32 0.26 0.22 0.23 0.27 0.35 0.47 0.71 0.93 1.21 1.23 0.67 0.40 0.71 0.99 0.88 0.75 0.65 0.68
0.09 0.10 0.11 0.12 0.12 0.15 0.15 0.16 0.22 0.25 0.26 0.28 0.29 0.30 0.30 0.35 0.32 0.31 0.30 0.30 0.27 0.25 0.25 0.26 0.26 0.22 0.20 0.23 0.29 0.38 0.49 0.66 0.93 1.09 0.91 0.80 0.72 0.71 0.75 0.74 0.75 0.74 0.72
0.14 0.11 0.13 0.15 0.15 0.15 0.14 0.15 0.19 0.24 0.25 0.26 0.29 0.35 0.34 0.38 0.39 0.33 0.29 0.30 0.29 0.26 0.25 0.21 0.20 0.21 0.22 0.26 0.33 0.40 0.53 0.71 0.80 0.63 0.58 0.59 0.69 0.80 0.72 0.85 0.96 0.95 0.84
0.20 0.16 0.15 0.18 0.18 0.18 0.17 0.19 0.20 0.21 0.22 0.22 0.22 0.26 0.30 0.34 0.39 0.35 0.32 0.31 0.27 0.25 0.24 0.21 0.20 0.22 0.25 0.28 0.34 0.43 0.58 0.78 0.68 0.48 0.57 0.65 0.61 0.63 0.73 0.98 1.18 1.17 1.00
0.41 0.28 0.25 0.25 0.22 0.21 0.19 0.21 0.22 0.22 0.19 0.19 0.19 0.20 0.26 0.29 0.31 0.34 0.33 0.31 0.26 0.22 0.21 0.21 0.22 0.25 0.28 0.31 0.35 0.43 0.59 0.69 0.56 0.51 0.49 0.48 0.47 0.58 0.77 1.00 1.18 1.27 1.12
0.65 0.48 0.39 0.32 0.26 0.27 0.27 0.26 0.23 0.22 0.22 0.21 0.21 0.23 0.32 0.35 0.36 0.38 0.36 0.32 0.31 0.28 0.25 0.20 0.21 0.25 0.28 0.30 0.33 0.40 0.54 0.69 0.62 0.65 0.48 0.49 0.64 0.73 0.93 1.09 1.14 1.16 1.09
0.91 0.69 0.55 0.51 0.48 0.40 0.33 0.31 0.32 0.30 0.31 0.29 0.27 0.32 0.38 0.39 0.39 0.43 0.40 0.39 0.39 0.39 0.35 0.32 0.28 0.27 0.30 0.32 0.35 0.44 0.55 0.54 0.51 0.56 0.53 0.49 0.71 0.86 1.02 1.07 1.12 1.09 1.09
1.38 0.99 0.79 0.71 0.67 0.63 0.53 0.47 0.49 0.48 0.47 0.43 0.47 0.52 0.57 0.62 0.61 0.71 0.63 0.66 0.60 0.62 0.61 0.59 0.52 0.47 0.43 0.40 0.51 0.64 0.57 0.58 0.78 0.81 0.64 0.67 0.80 1.00 1.16 1.16 1.16 1.15 1.15
1.57 1.15 1.00 0.83 0.73 0.74 0.83 0.96 0.89 0.78 0.78 0.77 0.90 0.97 1.14 1.20 1.14 0.92 0.96 1.10 1.15 1.27 1.20 1.14 1.09 0.86 0.71 0.66 1.09 1.31 0.70 0.61 0.76 0.87 0.76 0.74 0.95 1.26 1.42 1.31 1.21 1.16 1.08
1.50 1.24 1.14 1.12 1.05 0.95 1.07 1.21 1.21 1.13 1.15 1.12 1.19 1.31 1.41 1.28 1.20 1.12 1.18 1.36 1.46 1.59 1.55 1.71 1.75 1.46 1.41 1.43 1.61 1.55 0.98 0.93 0.88 0.79 0.87 0.99 1.11 1.40 1.68 1.51 1.30 1.20 1.09
1.97 1.67 1.50 1.53 1.37 1.27 1.25 1.36 1.38 1.35 1.27 1.24 1.37 1.38 1.52 1.60 1.54 1.52 1.61 1.61 1.68 1.86 2.19 2.04 2.19 2.11 1.97 1.85 1.81 1.66 1.38 1.36 1.28 1.19 1.43 1.30 1.20 1.48 1.82 1.69 1.47 1.35 1.25
2.51 2.41 2.12 1.86 1.66 1.60 1.70 1.66 1.58 1.57 1.53 1.57 1.69 1.69 1.74 1.91 1.91 1.95 1.89 1.90 1.76 1.95 2.28 2.38 2.28 2.49 2.55 2.33 2.08 1.87 1.80 1.66 1.51 1.50 1.58 1.50 1.40 1.48 1.75 1.86 1.71 1.59 1.47
2.71 2.79 2.58 2.34 2.16 2.11 2.22 2.25 2.10 1.91 1.99 2.05 2.02 1.91 1.95 2.16 2.36 2.40 2.24 2.17 2.03 2.04 2.24 2.38 2.41 2.90 2.79 2.63 2.16 1.94 1.88 1.85 1.71 1.67 1.69 1.77 1.50 1.37 1.50 1.79 1.94 1.90 1.80
3.09 3.00 2.94 2.86 2.73 2.74 2.68 2.62 2.42 2.34 2.18 2.15 2.20 2.27 2.23 2.24 2.47 2.52 2.50 2.36 2.28 2.25 2.38 2.41 2.61 2.87 2.60 2.47 2.20 2.08 1.96 1.85 1.68 1.67 1.84 2.01 1.79 1.53 1.39 1.50 1.80 1.97 2.01
3.45 3.41 3.37 3.21 3.18 3.15 3.09 2.96 2.79 2.66 2.36 2.15 2.14 2.28 2.32 2.35 2.48 2.56 2.39 2.27 2.48 2.56 2.63 2.75 2.83 2.87 2.73 2.65 2.47 2.16 1.99 1.91 1.52 1.48 1.55 1.62 1.76 1.54 1.61 1.74 1.87 1.94 2.12
3.94 4.05 4.01 3.93 3.69 3.45 3.37 3.33 3.34 3.25 2.90 2.53 2.40 2.37 2.38 2.27 2.30 2.46 2.32 2.39 2.56 2.65 2.68 2.47 2.83 2.82 2.82 2.75 2.31 2.06 1.79 1.66 1.52 1.28 1.26 1.20 1.33 1.38 1.46 1.58 1.73 1.74 2.04
4.19 4.55 4.41 4.28 4.23 4.15 4.02 3.75 3.71 3.48 3.16 2.96 2.79 2.73 2.54 2.39 2.38 2.53 2.39 2.47 2.59 2.69 2.68 2.70 2.87 2.85 2.70 2.68 2.17 1.90 1.64 1.35 1.35 1.28 1.08 1.10 1.15 1.07 1.14 1.35 1.64 1.42 1.77
4.41 4.73 4.80 4.92 4.80 4.54 4.12 3.67 3.47 3.36 3.30 3.09 2.84 2.60 2.50 2.43 2.50 2.68 2.56 2.69 2.66 2.52 2.51 2.68 2.84 2.67 2.46 2.59 2.49 1.90 1.43 1.18 1.17 1.10 1.11 1.17 1.10 1.07 1.21 1.49 1.61 1.52 1.43
4.01 4.41 4.53 4.29 4.15 4.02 3.76 3.60 3.56 3.70 3.39 3.06 2.85 2.60 2.42 2.39 2.44 2.38 2.46 2.36 2.37 2.47 2.48 2.52 2.70 2.54 2.17 2.32 2.39 2.22 1.64 1.37 1.10 0.90 1.05 1.08 1.06 1.18 1.23 1.36 1.64 1.79 1.66
3.00 3.23 3.39 3.54 3.42 3.31 3.27 3.23 3.27 3.42 3.14 2.81 2.61 2.47 2.26 2.16 2.11 2.10 2.10 2.18 2.42 2.44 2.41 2.45 2.47 2.34 2.04 2.02 2.13 2.27 1.78 1.39 1.12 0.82 0.82 0.97 1.15 1.33 1.30 1.43 1.55 1.72 1.79
2.65 2.79 2.83 2.86 2.96 2.95 2.96 2.83 2.65 2.54 2.40 2.24 2.24 2.20 2.19 2.09 1.97 1.91 1.91 1.97 2.04 2.03 2.08 1.92 2.03 2.16 2.17 1.97 2.01 2.00 1.83 1.65 1.50 1.11 0.90 0.91 1.08 1.19 1.28 1.26 1.27 1.40 1.68
2.04 2.26 2.40 2.48 2.55 2.61 2.61 2.46 2.41 2.22 2.15 2.15 2.11 2.07 2.00 1.93 1.89 1.83 1.75 1.73 1.65 1.65 1.76 1.76 1.85 1.89 1.89 1.86 1.88 1.93 1.89 1.81 1.72 1.57 1.27 1.16 1.10 0.97 1.03 1.13 1.18 1.25 1.52
1.75 1.92 2.06 2.16 2.18 2.27 2.30 2.27 2.19 2.10 2.06 2.00 1.91 1.87 1.85 1.84 1.74 1.66 1.63 1.65 1.58 1.56 1.62 1.66 1.74 1.70 1.73 1.77 1.77 1.81 1.86 1.79 1.79 1.80 1.50 1.38 1.29 1.06 1.04 1.01 1.04 1.10 1.33

GEFSSE_prec_meanprecacc_192.txt.gz
Total_Precipitation_Accumulation
0.44 0.48 0.61 0.44 0.35 0.37 0.38 0.45 0.45 0.38 0.37 0.40 0.38 0.36 0.35 0.37 0.40 0.44 0.45 0.45 0.50 0.59 0.63 0.63 0.61 0.60 0.61 0.63 0.65 0.63 0.61 0.60 0.65 0.72 0.78 0.76 0.77 1.05 1.39 1.50 1.46 0.99 0.98
0.24 0.37 0.54 0.40 0.31 0.30 0.32 0.39 0.35 0.32 0.33 0.35 0.33 0.33 0.33 0.35 0.37 0.38 0.41 0.45 0.49 0.52 0.50 0.52 0.53 0.50 0.45 0.44 0.45 0.45 0.51 0.60 0.77 0.87 0.83 0.69 0.80 1.02 1.29 1.34 1.41 0.89 0.85
0.13 0.25 0.35 0.34 0.28 0.26 0.27 0.32 0.33 0.30 0.28 0.32 0.33 0.36 0.39 0.40 0.37 0.37 0.41 0.43 0.43 0.42 0.40 0.43 0.44 0.41 0.34 0.32 0.34 0.39 0.50 0.70 0.90 1.03 1.13 0.66 0.56 1.01 1.26 1.25 1.05 0.74 0.74
0.10 0.17 0.19 0.21 0.22 0.21 0.22 0.26 0.32 0.31 0.29 0.31 0.35 0.42 0.47 0.48 0.44 0.41 0.40 0.38 0.37 0.34 0.33 0.36 0.38 0.32 0.28 0.27 0.31 0.39 0.51 0.76 0.96 1.24 1.27 0.69 0.42 0.76 1.04 0.91 0.78 0.69 0.72
0.12 0.17 0.20 0.19 0.16 0.18 0.18 0.19 0.27 0.35 0.37 0.35 0.38 0.44 0.48 0.54 0.49 0.44 0.42 0.41 0.38 0.35 0.33 0.31 0.30 0.26 0.23 0.27 0.33 0.42 0.52 0.70 0.96 1.11 0.93 0.84 0.78 0.76 0.78 0.77 0.78 0.78 0.75
0.17 0.16 0.18 0.20 0.19 0.18 0.17 0.18 0.21 0.30 0.35 0.36 0.37 0.44 0.46 0.53 0.55 0.46 0.41 0.41 0.40 0.37 0.32 0.25 0.23 0.25 0.26 0.31 0.38 0.44 0.56 0.74 0.82 0.66 0.61 0.64 0.74 0.85 0.75 0.89 0.99 0.98 0.87
0.22 0.20 0.18 0.21 0.20 0.20 0.20 0.22 0.23 0.25 0.29 0.30 0.30 0.35 0.40 0.44 0.49 0.45 0.43 0.41 0.36 0.32 0.28 0.24 0.24 0.28 0.34 0.36 0.41 0.48 0.61 0.80 0.69 0.50 0.60 0.70 0.66 0.68 0.78 1.01 1.22 1.19 1.02
0.42 0.30 0.27 0.28 0.24 0.22 0.21 0.24 0.25 0.25 0.24 0.27 0.25 0.28 0.34 0.38 0.39 0.42 0.40 0.38 0.31 0.27 0.25 0.25 0.28 0.32 0.36 0.39 0.41 0.48 0.63 0.71 0.57 0.53 0.52 0.53 0.51 0.61 0.82 1.05 1.22 1.30 1.15
0.66 0.49 0.42 0.35 0.28 0.28 0.29 0.29 0.26 0.25 0.26 0.27 0.25 0.28 0.38 0.40 0.43 0.45 0.41 0.37 0.36 0.33 0.29 0.26 0.28 0.31 0.34 0.35 0.37 0.44 0.58 0.72 0.64 0.67 0.50 0.52 0.67 0.78 0.99 1.17 1.21 1.20 1.12
0.93 0.72 0.57 0.54 0.50 0.42 0.35 0.34 0.35 0.33 0.34 0.34 0.32 0.37 0.43 0.43 0.45 0.50 0.46 0.45 0.46 0.47 0.41 0.39 0.34 0.31 0.34 0.35 0.39 0.49 0.60 0.56 0.53 0.58 0.55 0.51 0.74 0.90 1.08 1.16 1.19 1.13 1.11
1.40 1.01 0.80 0.72 0.68 0.64 0.54 0.48 0.52 0.52 0.52 0.49 0.54 0.58 0.63 0.67 0.65 0.77 0.71 0.75 0.68 0.71 0.69 0.67 0.58 0.52 0.48 0.45 0.57 0.71 0.61 0.60 0.79 0.83 0.68 0.70 0.84 1.03 1.19 1.20 1.21 1.18 1.17
1.58 1.16 1.02 0.83 0.73 0.74 0.84 0.98 0.93 0.82 0.83 0.86 0.98 1.04 1.21 1.26 1.20 0.97 1.02 1.16 1.22 1.34 1.27 1.21 1.15 0.90 0.76 0.71 1.14 1.36 0.73 0.63 0.77 0.90 0.80 0.77 0.98 1.29 1.45 1.34 1.24 1.19 1.11
1.51 1.25 1.15 1.12 1.06 0.95 1.08 1.22 1.23 1.16 1.20 1.20 1.26 1.36 1.45 1.31 1.23 1.15 1.22 1.43 1.53 1.65 1.60 1.76 1.80 1.50 1.45 1.47 1.65 1.58 1.01 0.95 0.91 0.82 0.91 1.02 1.14 1.43 1.70 1.53 1.32 1.22 1.11
1.97 1.67 1.51 1.53 1.38 1.28 1.25 1.36 1.38 1.37 1.29 1.30 1.46 1.42 1.55 1.64 1.57 1.55 1.65 1.66 1.74 1.91 2.24 2.08 2.23 2.15 2.00 1.87 1.82 1.68 1.40 1.38 1.31 1.24 1.49 1.32 1.23 1.52 1.84 1.71 1.49 1.37 1.27
2.52 2.42 2.12 1.87 1.67 1.61 1.71 1.67 1.59 1.58 1.54 1.62 1.76 1.74 1.77 1.94 1.94 1.98 1.93 1.93 1.78 1.97 2.32 2.41 2.31 2.53 2.58 2.36 2.11 1.90 1.82 1.67 1.53 1.54 1.62 1.54 1.43 1.51 1.78 1.88 1.74 1.62 1.50
2.71 2.79 2.58 2.35 2.17 2.12 2.22 2.26 2.10 1.91 2.00 2.06 2.04 1.93 1.97 2.18 2.38 2.42 2.27 2.20 2.05 2.07 2.28 2.42 2.45 2.95 2.84 2.68 2.22 1.99 1.93 1.89 1.74 1.70 1.74 1.83 1.55 1.41 1.54 1.83 1.99 1.94 1.83
3.09 3.01 2.95 2.86 2.74 2.75 2.69 2.62 2.43 2.34 2.18 2.16 2.21 2.28 2.24 2.26 2.48 2.54 2.52 2.39 2.31 2.27 2.42 2.47 2.67 2.92 2.64 2.53 2.26 2.13 2.02 1.90 1.72 1.70 1.87 2.06 1.85 1.57 1.42 1.54 1.84 2.01 2.04
3.45 3.42 3.38 3.22 3.20 3.17 3.11 2.97 2.80 2.66 2.37 2.15 2.15 2.30 2.34 2.36 2.49 2.58 2.41 2.31 2.51 2.59 2.67 2.82 2.92 2.95 2.80 2.71 2.52 2.20 2.02 1.96 1.57 1.51 1.57 1.65 1.80 1.59 1.66 1.77 1.91 1.98 2.15
3.94 4.06 4.02 3.95 3.71 3.47 3.38 3.34 3.35 3.26 2.92 2.55 2.42 2.40 2.41 2.29 2.33 2.49 2.36 2.44 2.61 2.70 2.73 2.52 2.90 2.90 2.91 2.82 2.36 2.10 1.82 1.70 1.58 1.32 1.29 1.23 1.37 1.42 1.51 1.61 1.76 1.76 2.06
4.21 4.55 4.42 4.29 4.24 4.16 4.04 3.77 3.73 3.49 3.18 2.97 2.81 2.77 2.60 2.45 2.44 2.60 2.45 2.52 2.65 2.76 2.76 2.78 2.97 2.95 2.79 2.77 2.22 1.94 1.68 1.37 1.37 1.31 1.11 1.13 1.18 1.09 1.16 1.37 1.68 1.45 1.80
4.42 4.74 4.81 4.94 4.83 4.55 4.13 3.69 3.48 3.37 3.32 3.12 2.86 2.63 2.55 2.50 2.60 2.81 2.64 2.78 2.76 2.62 2.62 2.77 2.93 2.77 2.55 2.67 2.57 1.98 1.48 1.20 1.19 1.13 1.15 1.20 1.11 1.09 1.24 1.53 1.67 1.56 1.46
4.02 4.43 4.56 4.32 4.19 4.05 3.77 3.62 3.58 3.73 3.42 3.09 2.88 2.63 2.46 2.44 2.53 2.46 2.53 2.43 2.48 2.60 2.60 2.63 2.80 2.65 2.27 2.41 2.49 2.32 1.71 1.42 1.13 0.92 1.08 1.11 1.09 1.21 1.25 1.39 1.67 1.84 1.70
3.02 3.25 3.42 3.58 3.47 3.36 3.31 3.27 3.30 3.45 3.17 2.84 2.63 2.50 2.30 2.20 2.16 2.16 2.15 2.25 2.52 2.55 2.52 2.59 2.60 2.46 2.14 2.12 2.25 2.39 1.88 1.47 1.19 0.86 0.84 0.98 1.18 1.36 1.33 1.47 1.57 1.75 1.82
2.66 2.82 2.88 2.92 3.01 3.00 3.03 2.89 2.71 2.60 2.45 2.31 2.30 2.25 2.24 2.14 2.03 1.98 1.98 2.05 2.15 2.14 2.20 2.04 2.13 2.27 2.29 2.08 2.12 2.08 1.91 1.71 1.57 1.18 0.95 0.93 1.10 1.21 1.30 1.28 1.29 1.42 1.70
2.05 2.28 2.44 2.53 2.59 2.67 2.67 2.54 2.51 2.30 2.25 2.25 2.20 2.16 2.09 2.02 1.97 1.92 1.85 1.82 1.76 1.77 1.89 1.88 1.96 1.99 1.99 1.95 1.96 2.00 1.95 1.87 1.75 1.62 1.34 1.20 1.13 0.98 1.04 1.14 1.20 1.27 1.54
1.77 1.95 2.09 2.21 2.23 2.33 2.37 2.34 2.28 2.20 2.17 2.09 2.01 1.97 1.94 1.93 1.81 1.74 1.74 1.75 1.69 1.67 1.73 1.78 1.85 1.79 1.81 1.86 1.85 1.87 1.92 1.85 1.84 1.85 1.56 1.43 1.33 1.07 1.05 1.02 1.05 1.11 1.35

GEFSSE_prec_meanprecacc_198.txt.gz
Total_Precipitation_Accumulation
0.61 0.63 0.75 0.54 0.44 0.45 0.47 0.55 0.54 0.46 0.46 0.48 0.46 0.43 0.40 0.41 0.45 0.52 0.53 0.53 0.61 0.70 0.74 0.75 0.78 0.80 0.76 0.72 0.71 0.68 0.65 0.64 0.68 0.76 0.82 0.79 0.80 1.09 1.44 1.57 1.53 1.02 1.02
0.37 0.50 0.66 0.51 0.40 0.38 0.42 0.52 0.47 0.41 0.42 0.43 0.41 0.39 0.38 0.40 0.42 0.45 0.52 0.59 0.65 0.69 0.69 0.72 0.72 0.66 0.58 0.53 0.50 0.50 0.56 0.63 0.81 0.92 0.86 0.71 0.83 1.05 1.34 1.40 1.48 0.91 0.89
0.20 0.35 0.45 0.46 0.40 0.39 0.43 0.47 0.46 0.41 0.37 0.42 0.43 0.44 0.46 0.47 0.44 0.45 0.52 0.55 0.61 0.62 0.58 0.60 0.61 0.55 0.43 0.38 0.38 0.44 0.54 0.74 0.96 1.11 1.22 0.69 0.57 1.03 1.30 1.30 1.09 0.77 0.78
0.13 0.24 0.25 0.29 0.29 0.28 0.29 0.32 0.40 0.41 0.39 0.42 0.48 0.56 0.60 0.62 0.56 0.53 0.54 0.54 0.53 0.50 0.46 0.51 0.51 0.42 0.36 0.33 0.36 0.45 0.56 0.81 1.06 1.43 1.41 0.75 0.44 0.77 1.07 0.96 0.83 0.74 0.76
0.15 0.21 0.26 0.23 0.21 0.23 0.23 0.25 0.36 0.44 0.45 0.45 0.50 0.56 0.62 0.72 0.68 0.61 0.57 0.57 0.51 0.47 0.42 0.41 0.38 0.32 0.29 0.32 0.38 0.46 0.58 0.78 1.08 1.28 1.03 0.90 0.82 0.78 0.80 0.80 0.81 0.81 0.79
0.18 0.19 0.20 0.24 0.23 0.23 0.22 0.24 0.30 0.41 0.44 0.45 0.47 0.54 0.57 0.66 0.69 0.61 0.54 0.55 0.51 0.44 0.37 0.30 0.27 0.28 0.29 0.34 0.42 0.48 0.60 0.83 0.95 0.75 0.68 0.72 0.78 0.87 0.77 0.92 1.02 1.00 0.90
0.24 0.22 0.19 0.23 0.23 0.24 0.23 0.25 0.28 0.32 0.38 0.38 0.36 0.41 0.48 0.54 0.62 0.57 0.54 0.52 0.45 0.39 0.33 0.27 0.27 0.31 0.36 0.39 0.44 0.50 0.65 0.88 0.81 0.56 0.69 0.80 0.70 0.71 0.80 1.04 1.24 1.21 1.04
0.43 0.31 0.28 0.29 0.26 0.24 0.24 0.26 0.28 0.29 0.30 0.33 0.30 0.33 0.40 0.45 0.48 0.50 0.48 0.45 0.38 0.33 0.30 0.28 0.31 0.35 0.39 0.41 0.43 0.51 0.66 0.76 0.63 0.58 0.60 0.59 0.54 0.63 0.84 1.06 1.24 1.32 1.16
0.68 0.50 0.42 0.36 0.29 0.29 0.30 0.30 0.28 0.28 0.31 0.32 0.31 0.34 0.43 0.44 0.48 0.50 0.48 0.43 0.42 0.39 0.33 0.29 0.30 0.33 0.36 0.37 0.39 0.47 0.61 0.76 0.68 0.72 0.55 0.55 0.68 0.80 1.01 1.19 1.23 1.22 1.14
0.96 0.74 0.58 0.55 0.51 0.43 0.35 0.35 0.36 0.35 0.37 0.38 0.38 0.42 0.50 0.50 0.50 0.55 0.51 0.51 0.53 0.53 0.46 0.44 0.37 0.34 0.36 0.37 0.41 0.51 0.63 0.59 0.55 0.60 0.58 0.52 0.76 0.94 1.11 1.19 1.22 1.16 1.14
1.43 1.02 0.80 0.72 0.69 0.66 0.54 0.48 0.53 0.54 0.55 0.54 0.60 0.65 0.75 0.77 0.70 0.83 0.76 0.81 0.74 0.76 0.74 0.72 0.63 0.55 0.51 0.48 0.59 0.74 0.64 0.63 0.81 0.85 0.70 0.71 0.86 1.07 1.23 1.23 1.23 1.21 1.20
1.61 1.18 1.02 0.84 0.74 0.75 0.85 1.00 0.99 0.84 0.88 0.95 1.08 1.16 1.40 1.39 1.31 1.04 1.07 1.22 1.27 1.38 1.32 1.28 1.22 0.96 0.82 0.75 1.17 1.39 0.76 0.66 0.79 0.91 0.82 0.78 1.00 1.31 1.47 1.36 1.25 1.20 1.12
1.53 1.28 1.16 1.13 1.06 0.96 1.10 1.25 1.29 1.22 1.28 1.31 1.36 1.46 1.56 1.39 1.30 1.21 1.27 1.49 1.60 1.72 1.67 1.83 1.89 1.57 1.52 1.52 1.69 1.60 1.04 0.99 0.95 0.86 0.92 1.03 1.15 1.44 1.71 1.54 1.33 1.23 1.12
1.98 1.69 1.52 1.54 1.39 1.29 1.27 1.39 1.41 1.41 1.36 1.40 1.55 1.49 1.61 1.71 1.66 1.62 1.73 1.74 1.83 1.99 2.32 2.15 2.32 2.20 2.03 1.90 1.86 1.71 1.43 1.41 1.37 1.30 1.52 1.33 1.24 1.52 1.85 1.71 1.49 1.38 1.28
2.52 2.43 2.13 1.88 1.68 1.62 1.73 1.70 1.61 1.62 1.60 1.69 1.85 1.80 1.81 1.98 2.01 2.04 2.00 2.01 1.85 2.02 2.37 2.48 2.36 2.57 2.62 2.41 2.17 1.95 1.85 1.68 1.55 1.56 1.66 1.55 1.44 1.53 1.79 1.89 1.75 1.64 1.51
2.72 2.80 2.59 2.36 2.18 2.14 2.25 2.29 2.14 1.93 2.04 2.11 2.09 1.96 2.00 2.22 2.44 2.48 2.32 2.26 2.12 2.13 2.34 2.47 2.50 2.99 2.88 2.73 2.28 2.04 1.96 1.90 1.76 1.73 1.78 1.86 1.56 1.42 1.55 1.84 2.00 1.97 1.84
3.10 3.02 2.95 2.87 2.75 2.77 2.71 2.64 2.44 2.35 2.20 2.21 2.27 2.31 2.28 2.29 2.53 2.59 2.58 2.44 2.36 2.31 2.46 2.51 2.71 2.97 2.70 2.58 2.31 2.18 2.07 1.94 1.75 1.73 1.91 2.10 1.88 1.59 1.43 1.55 1.86 2.02 2.06
3.45 3.42 3.39 3.22 3.22 3.20 3.13 2.99 2.82 2.68 2.39 2.19 2.20 2.35 2.37 2.39 2.52 2.62 2.47 2.36 2.56 2.64 2.72 2.88 2.96 2.99 2.86 2.76 2.56 2.24 2.05 1.99 1.60 1.55 1.60 1.69 1.86 1.63 1.69 1.78 1.92 1.99 2.16
3.95 4.06 4.02 3.96 3.74 3.48 3.39 3.36 3.38 3.29 2.95 2.58 2.47 2.46 2.46 2.32 2.35 2.53 2.42 2.50 2.66 2.76 2.80 2.57 2.96 2.95 2.97 2.89 2.39 2.13 1.85 1.73 1.61 1.35 1.33 1.29 1.43 1.47 1.54 1.64 1.78 1.77 2.07
4.21 4.57 4.43 4.31 4.26 4.18 4.06 3.79 3.76 3.53 3.21 3.00 2.85 2.83 2.64 2.49 2.47 2.65 2.51 2.57 2.69 2.81 2.83 2.84 3.04 3.01 2.85 2.82 2.25 1.98 1.71 1.39 1.40 1.34 1.15 1.17 1.20 1.10 1.19 1.41 1.73 1.47 1.81
4.44 4.77 4.85 4.97 4.85 4.58 4.16 3.73 3.53 3.43 3.38 3.17 2.92 2.68 2.59 2.53 2.63 2.87 2.71 2.85 2.82 2.68 2.69 2.84 3.02 2.85 2.62 2.74 2.63 2.05 1.53 1.22 1.21 1.16 1.18 1.23 1.15 1.13 1.28 1.59 1.71 1.60 1.49
4.04 4.47 4.60 4.35 4.22 4.07 3.81 3.67 3.64 3.81 3.49 3.16 2.95 2.71 2.51 2.49 2.58 2.52 2.63 2.51 2.56 2.70 2.69 2.71 2.91 2.75 2.37 2.50 2.59 2.45 1.81 1.51 1.19 0.94 1.11 1.14 1.13 1.29 1.34 1.43 1.71 1.90 1.74
3.03 3.29 3.46 3.61 3.50 3.38 3.35 3.33 3.36 3.53 3.26 2.94 2.72 2.59 2.36 2.25 2.22 2.24 2.26 2.35 2.61 2.64 2.63 2.69 2.69 2.55 2.25 2.22 2.35 2.49 2.01 1.60 1.30 0.92 0.87 1.01 1.22 1.41 1.38 1.51 1.60 1.78 1.85
2.67 2.84 2.92 2.94 3.03 3.04 3.08 2.97 2.80 2.69 2.55 2.41 2.39 2.33 2.31 2.20 2.10 2.05 2.05 2.13 2.22 2.22 2.30 2.12 2.22 2.34 2.38 2.18 2.23 2.18 2.00 1.83 1.71 1.29 1.01 0.97 1.14 1.25 1.35 1.32 1.34 1.46 1.73
2.06 2.29 2.46 2.56 2.62 2.73 2.76 2.64 2.60 2.41 2.38 2.36 2.29 2.27 2.18 2.10 2.04 1.97 1.91 1.89 1.84 1.85 1.99 1.97 2.06 2.09 2.09 2.05 2.07 2.12 2.08 1.98 1.85 1.74 1.47 1.28 1.20 1.01 1.06 1.16 1.22 1.31 1.57
1.78 1.95 2.11 2.25 2.28 2.40 2.44 2.42 2.36 2.30 2.29 2.22 2.15 2.12 2.06 2.03 1.91 1.84 1.83 1.84 1.77 1.77 1.82 1.88 1.95 1.90 1.92 1.98 1.97 1.99 2.04 1.96 1.93 1.98 1.69 1.54 1.42 1.10 1.07 1.04 1.07 1.14 1.38